Powrót do katalogu

DELTA 1 DEB

AktywnyLEO
NORAD 2518·DEBRIS·🇺🇸 United States

Wystrzelony Oct 2, 1966 z Vandenberg Space Force Base

Loading…

Następne Przeloty (najbliższe 24 godziny)

TLE

ŚwieżeSource: Space-Track

Epoka: Sep 14, 2026, 03:31 UTC

1 02518U 66087C   26257.14707640 -.00000020  00000-0  13181-3 0  9994
2 02518 100.8495 337.1097 0080928  27.5702   1.4955 12.42705200718479

Śledź DELTA 1 DEB w czasie rzeczywistym z AllMySat

Download on the App Store